This is the latest recevied weather packets stored in our database for station/object WV5G-13. If no packets are shown the sender has not sent any weather packets the latest 10 day(s).
| Time | Temp. | Humidity | Pressure | Rain* | Wind** | Luminosity | Snow |
|---|---|---|---|---|---|---|---|
| 1777689416 | 9.44° C | 72% | 1018.8 hPa | 0 mm | - | 0 W/m² | - |
| 1777689113 | 10° C | 71% | 1018.8 hPa | 0 mm | - | 0 W/m² | - |
| 1777688810 | 10° C | 71% | 1018.8 hPa | 0 mm | - | 0 W/m² | - |
| 1777688507 | 10° C | 71% | 1018.7 hPa | 0 mm | - | 0 W/m² | - |
| 1777688204 | 10° C | 70% | 1018.7 hPa | 0 mm | - | 0 W/m² | - |
| 1777687902 | 10° C | 70% | 1018.6 hPa | 0 mm | - | 0 W/m² | - |
| 1777687599 | 10° C | 69% | 1018.4 hPa | 0 mm | - | 0 W/m² | - |
| 1777687295 | 10.56° C | 68% | 1018.4 hPa | 0 mm | - | 0 W/m² | - |
| 1777686993 | 10.56° C | 68% | 1018.5 hPa | 0 mm | - | 0 W/m² | - |
| 1777686689 | 10.56° C | 68% | 1018.2 hPa | 0 mm | - | 0 W/m² | - |
| 1777686387 | 10.56° C | 68% | 1017.9 hPa | 0 mm | - | 0 W/m² | - |
| 1777686084 | 10.56° C | 68% | 1018.1 hPa | 0 mm | - | 1 W/m² | - |
| 1777685780 | 10.56° C | 67% | 1018 hPa | 0 mm | - | 2 W/m² | - |
| 1777685475 | 10.56° C | 68% | 1017.8 hPa | 0 mm | - | 5 W/m² | - |
| 1777685173 | 10.56° C | 67% | 1017.7 hPa | 0 mm | - | 8 W/m² | - |
| 1777684871 | 11.11° C | 66% | 1017.8 hPa | 0 mm | - | 12 W/m² | - |
| 1777684568 | 11.67° C | 65% | 1017.5 hPa | 0 mm | - | 15 W/m² | - |
| 1777684263 | 11.67° C | 65% | 1017.6 hPa | 0 mm | - | 18 W/m² | - |
| 1777683961 | 11.67° C | 64% | 1017.6 hPa | 0 mm | - | 20 W/m² | - |
| 1777683657 | 11.67° C | 64% | 1017.6 hPa | 0 mm | - | 25 W/m² | - |
| 1777683355 | 11.67° C | 63% | 1017.5 hPa | 0 mm | - | 29 W/m² | - |
| 1777683052 | 12.22° C | 62% | 1017.5 hPa | 0 mm | - | 42 W/m² | - |
| 1777682743 | 12.78° C | 62% | 1017.4 hPa | 0 mm | - | 53 W/m² | - |
| 1777682439 | 12.78° C | 61% | 1017.2 hPa | 0 mm | - | 67 W/m² | - |
| 1777682138 | 12.78° C | 61% | 1017.4 hPa | 0 mm | - | 82 W/m² | - |
* Rain latest hour (hover to see other rain measurements)
** Current wind speed in m/s (hover to see current wind gust speed)